[[{"header":{"parameterUnit":"m.s-1","parameterCategory":1,"la1":30.2991,"la2":30.254,"lo1":-89.0895,"lo2":-89.0444,"dy":0.0017,"dx":0.0017,"nx":28,"ny":28,"refTime":"2023-09-29T21:00:00:Z","depth":0,"parameterNumber":2,"parameterNumberName":"U-component_of_WINDS"},"data":[0,0,0,0,0,0,0,0,0,0,0,0,0,0,0,0,0,0,0,0,0,0,0,0,0,0,0,0,0,0,0,0,0,0,0,0,0,0,0,0,0,0,0,0,0,0,0,0,0,0,0,0,0,0,0,0,0,0,-4.2871,-4.2871,0,-4.2917,-4.2918,-4.2918,-4.273,-4.2725,-4.2719,-4.2714,-4.2768,-4.2775,-4.2781,0,0,0,0,0,0,0,0,0,0,0,0,0,-4.2624,-4.263,-4.2871,-4.2871,-4.2872,-4.2917,-4.2918,-4.2918,-4.2731,-4.2724,-4.2718,-4.2711,-4.2766,-4.2774,-4.2782,0,0,0,0,0,0,0,0,0,0,0,0,0,-4.2707,-4.2632,-4.2871,-4.2784,-4.2776,-4.2917,-4.2918,-4.2918,-4.2733,-4.2724,-4.2716,-4.2708,-4.2763,-4.2773,-4.2783,-4.3011,0,0,-4.2813,-4.2818,0,0,0,0,0,0,0,0,-4.2703,-4.2717,-4.2796,-4.279,-4.2782,-4.2809,-4.285,-4.295,-4.2735,-4.275,-4.2714,-4.2704,-4.2789,-4.2796,-4.2824,-4.3014,-4.3016,-4.2814,-4.282,-4.2824,-4.2827,0,0,0,0,0,0,0,-4.2697,-4.2714,-4.2889,-4.2797,-4.2789,-4.2744,-4.2746,-4.2868,-4.2816,-4.2748,-4.2734,-4.2742,-4.2784,-4.2814,-4.2823,-4.3017,-4.2814,-4.2823,-4.2829,-4.2833,-4.3396,-4.3404,0,0,0,0,0,0,-4.2702,-4.271,-4.2888,-4.289,-4.2721,-4.2755,-4.2758,-4.2809,-4.2814,-4.2806,-4.2749,-4.2733,-4.2802,-4.2812,-4.2825,-4.3092,-4.2824,-4.2834,-4.2839,-4.3387,-4.3398,-4.3407,0,0,0,0,0,0,-4.2698,-4.272,-4.2886,-4.2797,-4.2814,-4.2768,-4.2827,-4.2814,-4.2845,-4.2815,-4.2805,-4.279,-4.2795,-4.2811,-4.2965,-4.3092,-4.2838,-4.2847,-4.3376,-4.339,-4.3403,-4.363,0,0,0,0,0,0,-4.2692,-4.2719,-4.2805,-4.28,-4.282,-4.3026,-4.2835,-4.2821,-4.2862,-4.2841,-4.285,-4.2844,-4.279,-4.2952,-4.2975,-4.3101,-4.2855,-4.3365,-4.3382,-4.3398,-4.3611,-4.365,-4.3683,0,0,0,0,0,-4.2683,-4.2869,-4.281,-4.2833,-4.2925,-4.3033,-4.3045,-4.2977,-4.2873,-4.2959,-4.2939,-4.2844,-4.3073,-4.2969,-4.2994,-4.3125,-4.3357,-4.3377,-4.3397,-4.3595,-4.3642,-4.3682,0,0,0,0,0,0,-4.2894,-4.2867,-4.2802,-4.2991,-4.3015,-4.3001,-4.3108,-4.3029,-4.3085,-4.3064,-4.2979,-4.2983,-4.3153,-4.3153,-4.3038,-4.3345,-4.3197,-4.3223,-4.3339,-4.3384,-4.3419,-4.3417,-4.2863,0,0,0,0,0,-4.2961,-4.3049,-4.3021,-4.3191,-4.3206,-4.3156,-4.32,-4.3145,-4.3168,-4.3178,-4.317,-4.3197,-4.3275,-4.3329,-4.3399,-4.3609,-4.3609,-4.3711,-4.3747,-4.3776,-4.3801,-4.3912,-4.3958,-4.3474,-4.3474,-4.3473,0,0,-4.3104,-4.31,-4.3161,-4.3233,-4.3246,-4.334,-4.3166,-4.3273,-4.3343,-4.3195,-4.3341,-4.3335,-4.336,-4.3544,-4.3624,-4.355,-4.3934,-4.3802,-4.3826,-4.3835,-4.3938,-4.3984,-4.4025,-4.3488,-4.3485,-4.3483,0,0,-4.3411,-4.3416,-4.3558,-4.3573,-4.3593,-4.3557,-4.3592,-4.3589,-4.3579,-4.3723,-4.3613,-4.3695,-4.3832,-4.3854,-4.3883,-4.4196,-4.4111,-4.4221,-4.4409,-4.4519,-4.4557,-4.4591,-4.4704,-4.4745,-4.4245,-4.4246,-4.4246,0,-4.3586,-4.3722,-4.3642,-4.3756,-4.3792,-4.3658,-4.3802,-4.3821,-4.3864,-4.3893,-4.3807,-4.3974,-4.3981,-4.4168,-4.4244,-4.4272,-4.431,-4.4221,-4.4558,-4.459,-4.462,-4.4728,-4.477,-4.4259,-4.4258,-4.4256,-4.4255,0,-4.3937,-4.4033,-4.4145,-4.4188,-4.4235,-4.4364,-4.4304,-4.4362,-4.4302,-4.4276,-4.4424,-4.4427,-4.4496,-4.4535,-4.4479,-4.4715,-4.4668,-4.4572,-4.4422,-4.4681,-4.4781,-4.4821,-4.4278,-4.4273,-4.4269,-4.4266,0,0,-4.4383,-4.4375,-4.4419,-4.4436,-4.4446,-4.452,-4.4642,-4.4706,-4.4759,-4.4792,-4.4894,-4.501,-4.492,-4.4954,-4.4898,-4.4994,-4.5243,-4.4886,-4.4885,-4.4954,-4.5504,-4.5579,-4.5628,-4.5185,-4.5192,-4.5198,-4.5503,0,-4.4686,-4.4893,-4.4823,-4.5034,-4.5123,-4.4995,-4.5102,-4.5121,-4.5099,-4.5172,-4.5147,-4.5232,-4.5106,-4.5125,-4.5214,-4.5194,-4.5353,-4.5171,-4.5282,-4.5287,-4.5282,-4.5679,-4.5759,-4.6046,-4.5541,-4.5547,-4.5552,0,-4.5068,-4.5114,-4.5335,-4.5328,-4.5363,-4.546,-4.5512,-4.5582,-4.5601,-4.5578,-4.5614,-4.5538,-4.5658,-4.5506,-4.5672,-4.5549,-4.559,-4.5587,-4.5596,-4.5606,-4.5438,-4.5703,-4.6136,-4.618,-4.5612,-4.5607,-4.5603,0,-4.5374,-4.549,-4.5637,-4.5655,-4.5651,-4.5723,-4.5725,-4.5735,-4.5777,-4.5823,-4.585,-4.5911,-4.5945,-4.5994,-4.5937,-4.583,-4.6112,-4.5954,-4.6099,-4.6101,-4.6167,-4.6164,-4.6616,-4.6189,-4.6188,-4.6187,-4.6187,0,-4.5721,-4.5862,-4.5773,-4.5865,-4.6018,-4.5934,-4.6089,-4.6077,-4.6087,-4.6174,-4.6067,-4.6151,-4.6068,-4.6145,-4.6101,-4.6246,-4.6262,-4.6248,-4.6235,-4.6259,-4.6262,-4.6287,-4.6267,-4.6199,-4.6196,-4.6194,-4.6192,0,-4.609,-4.6036,-4.6188,-4.6171,-4.6169,-4.6284,-4.6269,-4.6353,-4.6321,-4.6433,-4.6454,-4.6407,-4.6491,-4.6437,-4.6524,-4.6494,-4.6684,-4.6642,-4.6678,-4.6668,-4.6816,-4.6804,-4.7302,-4.7364,-4.6895,-4.69,-4.6904,0,-4.6317,-4.6422,-4.6415,-4.6464,-4.6472,-4.6553,-4.6595,-4.6517,-4.6565,-4.6593,-4.6674,-4.6749,-4.6805,-4.6947,-4.6921,-4.6986,-4.6947,-4.7117,-4.6957,-4.6978,-4.6952,-4.6948,-4.6959,-4.7151,-4.7156,-4.7161,-4.7164,0,-4.6727,-4.6694,-4.6757,-4.6812,-4.6864,-4.6904,-4.6935,-4.6982,-4.6903,-4.6963,-4.7047,-4.709,-4.7176,-4.7253,-4.7307,-4.731,-4.7227,-4.7214,-4.7251,-4.7279,-4.7296,-4.7291,-4.6769,-4.7204,-4.72,-4.7197,-4.7195,-4.7194,-4.7033,-4.7119,-4.7127,-4.7202,-4.7216,-4.7247,-4.7324,-4.7301,-4.7369,-4.7432,-4.7381,-4.7482,-4.7496,-4.756,-4.7574,-4.7652,-4.7584,-4.7637,-4.7651,-4.7667,-4.7688,-4.7281,-4.7662,-4.766,-4.7659,-4.7658,-4.7657,0,-4.7438,-4.7436,-4.7505,-4.755,-4.7609,-4.7519,-4.7548,-4.7604,-4.7693,-4.7712,-4.7768,-4.7865,-4.7938,-4.7916,-4.7981,-4.8049,-4.8012,-4.8069,-4.8065,-4.8067,-4.7745,-4.7707,-4.8098,-4.8098,-4.8098,-4.8098,-4.8097,-4.8097,-4.7656,-4.7798,-4.7767,-4.7914,-4.7911,-4.8007,-4.8031,-4.806,-4.8074,-4.8186,-4.8245,-4.8229,-4.8233,-4.8297,-4.836,-4.8352,-4.8382,-4.8455,-4.8433,-4.8133,-4.809,-4.8049,-4.8013,-4.8461,-4.8462,-4.8748,-4.8751,-4.8753]},{"header":{"parameterUnit":"m.s-1","parameterCategory":1,"la1":30.2991,"la2":30.254,"lo1":-89.0895,"lo2":-89.0444,"dy":0.0017,"dx":0.0017,"nx":28,"ny":28,"refTime":"2023-09-29T21:00:00:Z","depth":0,"parameterNumber":3,"parameterNumberName":"V-component_of_WINDS"},"data":[0,0,0,0,0,0,0,0,0,0,0,0,0,0,0,0,0,0,0,0,0,0,0,0,0,0,0,0,0,0,0,0,0,0,0,0,0,0,0,0,0,0,0,0,0,0,0,0,0,0,0,0,0,0,0,0,0,0,-2.7065,-2.7065,0,-2.7116,-2.7116,-2.7117,-2.71,-2.7099,-2.7098,-2.7097,-2.7146,-2.7148,-2.715,0,0,0,0,0,0,0,0,0,0,0,0,0,-2.6949,-2.6951,-2.7065,-2.7065,-2.7066,-2.7116,-2.7116,-2.7117,-2.71,-2.7099,-2.7098,-2.7097,-2.7145,-2.7147,-2.715,0,0,0,0,0,0,0,0,0,0,0,0,0,-2.6999,-2.6952,-2.7065,-2.7064,-2.7064,-2.7115,-2.7116,-2.7117,-2.7101,-2.7099,-2.7098,-2.7096,-2.7144,-2.7147,-2.7151,-2.7204,0,0,-2.7161,-2.7163,0,0,0,0,0,0,0,0,-2.6996,-2.7004,-2.7063,-2.7064,-2.7065,-2.71,-2.7093,-2.7146,-2.7101,-2.7087,-2.7097,-2.7095,-2.7131,-2.7136,-2.7149,-2.7207,-2.7209,-2.7161,-2.7164,-2.7165,-2.7166,0,0,0,0,0,0,0,-2.6993,-2.7001,-2.7085,-2.7064,-2.7065,-2.7059,-2.7065,-2.7103,-2.7117,-2.7088,-2.7087,-2.7093,-2.7131,-2.7146,-2.715,-2.7209,-2.7161,-2.7164,-2.7167,-2.7168,-2.7312,-2.7314,0,0,0,0,0,0,-2.699,-2.6998,-2.7083,-2.7086,-2.7026,-2.7063,-2.7069,-2.709,-2.7117,-2.712,-2.7095,-2.7092,-2.714,-2.7146,-2.7151,-2.7215,-2.7165,-2.7168,-2.717,-2.731,-2.7312,-2.7314,0,0,0,0,0,0,-2.6987,-2.6997,-2.7081,-2.7042,-2.7052,-2.7067,-2.7091,-2.7092,-2.7106,-2.7122,-2.7124,-2.7107,-2.7139,-2.7147,-2.7191,-2.7216,-2.717,-2.7173,-2.7308,-2.7311,-2.7313,-2.7343,0,0,0,0,0,0,-2.6984,-2.6997,-2.7018,-2.7043,-2.7055,-2.7121,-2.7092,-2.7094,-2.7113,-2.711,-2.7134,-2.7136,-2.7139,-2.7186,-2.7195,-2.722,-2.7176,-2.7306,-2.7309,-2.7312,-2.734,-2.7346,-2.7352,0,0,0,0,0,-2.698,-2.7024,-2.702,-2.703,-2.7082,-2.7123,-2.7129,-2.7132,-2.7115,-2.7136,-2.7146,-2.7136,-2.7213,-2.7191,-2.72,-2.7227,-2.7304,-2.7308,-2.7312,-2.7337,-2.7345,-2.7352,0,0,0,0,0,0,-2.7001,-2.7027,-2.7022,-2.7076,-2.7098,-2.712,-2.7147,-2.7141,-2.7167,-2.7163,-2.7164,-2.717,-2.7215,-2.7226,-2.7201,-2.728,-2.7256,-2.7262,-2.7271,-2.7279,-2.7285,-2.728,-2.7178,0,0,0,0,0,-2.7012,-2.7045,-2.7065,-2.711,-2.7122,-2.7132,-2.715,-2.7151,-2.7172,-2.7181,-2.7194,-2.7214,-2.7243,-2.7262,-2.7289,-2.7341,-2.7345,-2.7364,-2.737,-2.7375,-2.738,-2.7407,-2.7415,-2.7327,-2.7327,-2.7327,0,0,-2.7035,-2.7053,-2.7074,-2.7115,-2.7132,-2.7163,-2.714,-2.7175,-2.7198,-2.7186,-2.7228,-2.7239,-2.7261,-2.731,-2.7332,-2.732,-2.7405,-2.738,-2.7384,-2.7386,-2.7412,-2.742,-2.7427,-2.733,-2.7329,-2.7329,0,0,-2.7093,-2.7111,-2.715,-2.7167,-2.7193,-2.7199,-2.7209,-2.7232,-2.7239,-2.7282,-2.7273,-2.73,-2.735,-2.7366,-2.738,-2.7443,-2.7434,-2.7452,-2.7483,-2.7509,-2.7516,-2.7522,-2.7543,-2.7551,-2.7457,-2.7457,-2.7457,0,-2.7117,-2.7166,-2.717,-2.7206,-2.7223,-2.7215,-2.7253,-2.727,-2.7302,-2.7314,-2.7301,-2.7362,-2.7377,-2.7428,-2.7443,-2.7456,-2.7465,-2.7449,-2.7515,-2.7521,-2.7527,-2.7547,-2.7555,-2.7459,-2.7459,-2.7459,-2.7459,0,-2.7194,-2.7228,-2.7257,-2.7289,-2.7311,-2.7347,-2.7355,-2.7376,-2.7374,-2.7382,-2.7425,-2.7443,-2.7473,-2.7485,-2.7484,-2.7536,-2.7527,-2.7515,-2.749,-2.7537,-2.7556,-2.7564,-2.7462,-2.7461,-2.7461,-2.746,0,0,-2.7266,-2.7301,-2.7311,-2.7325,-2.7353,-2.7378,-2.7414,-2.7444,-2.7461,-2.7484,-2.7513,-2.7555,-2.7543,-2.756,-2.756,-2.7583,-2.763,-2.7567,-2.7568,-2.7577,-2.7686,-2.7694,-2.7703,-2.7624,-2.7626,-2.7627,-2.7684,0,-2.7325,-2.7389,-2.7393,-2.7451,-2.7481,-2.7473,-2.7504,-2.7523,-2.7531,-2.7557,-2.7565,-2.7594,-2.7578,-2.7587,-2.761,-2.7619,-2.7651,-2.7615,-2.7649,-2.765,-2.7642,-2.7713,-2.7722,-2.7775,-2.7691,-2.7692,-2.7693,0,-2.7402,-2.7428,-2.7488,-2.7511,-2.7523,-2.7551,-2.7579,-2.7604,-2.7625,-2.7629,-2.7648,-2.7645,-2.7679,-2.7655,-2.7702,-2.7677,-2.7691,-2.7698,-2.77,-2.7702,-2.7674,-2.7715,-2.7792,-2.7799,-2.7705,-2.7704,-2.7703,0,-2.7446,-2.7496,-2.7539,-2.7551,-2.7579,-2.7598,-2.761,-2.763,-2.7647,-2.7671,-2.7682,-2.7709,-2.7724,-2.7744,-2.7748,-2.773,-2.7794,-2.777,-2.7797,-2.7797,-2.781,-2.7808,-2.7888,-2.7821,-2.7821,-2.7821,-2.7821,0,-2.751,-2.7547,-2.7559,-2.7584,-2.7625,-2.7629,-2.7668,-2.7679,-2.7696,-2.7723,-2.7718,-2.7743,-2.7747,-2.7772,-2.7775,-2.7812,-2.7819,-2.7822,-2.7822,-2.7822,-2.7821,-2.783,-2.7826,-2.7823,-2.7823,-2.7822,-2.7822,0,-2.7566,-2.7575,-2.7621,-2.7643,-2.765,-2.7678,-2.7697,-2.7721,-2.7728,-2.7762,-2.777,-2.7781,-2.781,-2.7817,-2.7851,-2.7853,-2.7897,-2.7894,-2.789,-2.7889,-2.7915,-2.7912,-2.8001,-2.8012,-2.794,-2.7941,-2.7942,0,-2.7605,-2.7634,-2.7659,-2.7677,-2.7691,-2.772,-2.7738,-2.7742,-2.7761,-2.7787,-2.7807,-2.7836,-2.786,-2.7906,-2.7917,-2.7943,-2.7939,-2.7969,-2.7943,-2.7942,-2.7938,-2.7936,-2.7938,-2.7973,-2.7974,-2.7975,-2.7975,0,-2.7674,-2.7677,-2.7704,-2.7733,-2.7755,-2.7777,-2.7798,-2.7813,-2.782,-2.7841,-2.7871,-2.789,-2.7925,-2.7953,-2.7979,-2.799,-2.7983,-2.7984,-2.7991,-2.799,-2.7986,-2.7987,-2.7902,-2.7981,-2.7981,-2.798,-2.798,-2.798,-2.7722,-2.7746,-2.7768,-2.7797,-2.7814,-2.7834,-2.7857,-2.7868,-2.7894,-2.7923,-2.7924,-2.7957,-2.7976,-2.8011,-2.8023,-2.8048,-2.8038,-2.8049,-2.8051,-2.8054,-2.8055,-2.7983,-2.8052,-2.8052,-2.8052,-2.8052,-2.8052,0,-2.7788,-2.7802,-2.783,-2.786,-2.7883,-2.7876,-2.7899,-2.7918,-2.7948,-2.7967,-2.799,-2.8024,-2.8051,-2.8064,-2.809,-2.8107,-2.8105,-2.8114,-2.8112,-2.8114,-2.8063,-2.8053,-2.8115,-2.8115,-2.8115,-2.8115,-2.8115,-2.8115,-2.7826,-2.7866,-2.7872,-2.7919,-2.7932,-2.7965,-2.7979,-2.7996,-2.8011,-2.805,-2.8073,-2.8082,-2.8098,-2.8125,-2.8149,-2.8152,-2.8161,-2.8171,-2.8173,-2.8124,-2.8118,-2.8112,-2.8102,-2.8174,-2.8174,-2.8221,-2.8222,-2.8222]}]]